Regional Weather Roundup
Issued by NWS

Home | Current Version | Previous Version | Graphics & Text | Print | Product List | Glossary On
Versions: 1 2 3 4 5 6 7 8 9 10 11 12 13 14 15 16 17 18 19 20 21 22 23 24 25 26 27 28 29 30 31 32 33 34 35 36 37 38 39 40 41 42 43 44 45 46 47 48 49 50
000
ASUS43 KLMK 020810
RWRKY
KENTUCKY REGIONAL WEATHER ROUNDUP
NATIONAL WEATHER SERVICE LOUISVILLE KY
400 AM EDT MON MAY 02 2016

NOTE "FAIR" INDICATES FEW OR NO CLOUDS BELOW 12,000 FEET
WITH NO SIGNIFICANT WEATHER AND/OR OBSTRUCTIONS TO VISIBILITY.

KYZ001>023-026-027-061>063-070>075-020900-
WESTERN AND SOUTH CENTRAL KENTUCKY

CITY           SKY/WX    TMP DP  RH WIND       PRES   REMARKS
PADUCAH        CLEAR     58  49  72 N8        30.00R
HENDERSON      CLEAR     57  50  77 NW7       29.98R
OWENSBORO      CLEAR     59  53  80 NW6       29.98S
HOPKINSVILLE   CLOUDY    62  55  78 N7        29.99R
BOWLING GREEN  MOCLDY    66  58  75 NW8       29.97R
GLASGOW        CLOUDY    67  67  99 W5        29.96R
$$

KYZ024-025-028>034-038-045-046-053-020900-
NORTH CENTRAL KENTUCKY

CITY           SKY/WX    TMP DP  RH WIND       PRES   REMARKS
LOUISVILLE/SDF PTCLDY    64  56  75 NW15      29.93S
LOUISVILLE/LOU MOCLDY    64  56  75 NW12      29.94S
FORT KNOX      CLEAR     61  58  89 NW7       29.92F
$$

KYZ035>037-039>044-047>052-055>060-089>105-020900-
NORTHEAST KENTUCKY

CITY           SKY/WX    TMP DP  RH WIND       PRES   REMARKS
LEXINGTON      MOCLDY    65  61  87 W10       29.92R
COVINGTON      CLEAR     60  58  92 W6        29.90S
FRANKFORT      PTCLDY    65  60  84 W6        29.92R
$$

KYZ054-064>069-076>088-106>120-020900-
SOUTHEAST KENTUCKY

CITY           SKY/WX    TMP DP  RH WIND       PRES   REMARKS
JACKSON        PTCLDY    63  60  90 VRB3      29.95S
LONDON         MOCLDY    66  60  81 SW7       29.97R
SOMERSET       CLOUDY    64  61  88 SW8       29.97S
MIDDLESBORO    PTCLDY    60  60 100 CALM      29.99S
MONTICELLO     PTSUNNY   67  62  84 W17       29.98S
$$





USA.gov is the U.S. government's official web portal to all federal, state and local government web resources and services.